SCP
0 0 0 0 0 0 0 0 0 0 -0 -0 0 0 0 -0 -0 0 0 0 -0 -0 0 0 0 0 0 0 0 0 0 0 0 0 0 0 0 0 0 0 0 0 0
0 0 0 0 0 0 -0 0 0 0 0 -0 0 0 -0 -0 0 0 0 0 -0 -0 -0 -0 -0 0 0 0 0 0 0 0 0 0 0 0 0 0 -0 0 0 0 0
0 0 0 0 0 -0 -0 0 0 0 0 -0 0 -0 -0 -0 0 0 0 0 -0 -0 0 0 0 -0 0 0 0 0 0 0 0 0 0 0 0 0 0 0 0 0 0
0 0 0 0 0 0 0 0 0 -0 0 -0 0 0 0 -0 -0 -0 -0 0 -0 -0 -0 0 0 -0 -0 0 0 -0 0 0 0 0 0 0 0 0 0 0 0 0 0
0 0 0 0 0 0 0 0 0 0 -0 0 -0 -0 -0 0 -0 0 -0 -0 0 -0 0 0 0 0 0 0 0 0 0 0 0 0 0 0 0 0 0 0 0 0 0
0 -0 -0 0 0 0 0 -0 0 0 -0 -0 0 0 0 -0 0 0 0 -0 -0 -0 -0 -0 0 0 0 -0 0 0 0 0 0 0 0 0 0 0 0 0 0 0 0
-0 -0 -0 -0 -0 -0 -0 -0 -0 0 -0 -0 0 0 -0 0 0 0 -0 0 -0 0 0 0 0 0 0 0 0 0 0 0 0 0 -0 0 0 0 0 -0 -0 0 -0
-0 -0 -0 -0 -0 -0 -0 -0 -0 -0 -0 -0 0 0 0 0 -0 0 0 0 0 -0 0 0 0 0 0 0 0 0 0 0 0 0 0 0 0 -0 -0 -0 -0 -0 -0
-0 -0 -0 -0 -0 0 0 -0 -0 -0 -0 -0 0 0 0 0 0 0 0 0 -0 -0 0 0 0 0 0 0 0 0 -0 0 0 0 0 0 -0 -0 -0 -0 -0 0 0
-0 -0 -0 -0 -0 0 0 0 0 0 0 -0 0 0 0 0 0 0 0 0 -0 -0 0 -0 -0 -0 -0 0 -0 0 0 0 -0 -0 -0 -0 -0 -0 -0 0 -0 0 0
-0 -0 -0 -0 -0 -0 0 0 0 0 0 0 0 0 0 0 0 0 0 0 0 0 0 -0 0 0 -0 -0 0 0 0 0 -0 -0 -0 -0 -0 -0 -0 -0 -0 0 -0
-0 -0 -0 -0 -0 -0 -0 0 0 0 0 0 0 0 0 0 0 0 0 0 0 0 0 0 -0 -0 -0 -0 -0 0 0 -0 -0 -0 -0 -0 -0 -0 -0 -0 -0 0 -0
-0 -0 -0 -0 -0 -0 -0 0 0 0 0 0 0 0 0 -0 -0 0 0 0 0 -0 0 -0 0 0 0 0 0 -0 -0 -0 -0 -0 -0 -0 -0 -0 -0 -0 0 0 -0
-0 -0 -0 -0 -0 0 0 0 0 0 0 0 0 0 0 0 0 0 0 0 0 0 0 0 0 0 0 -0 -0 -0 -0 -0 -0 -0 -0 -0 -0 0 0 0 -0 0 0
-0 -0 -0 0 0 0 -0 0 0 0 0 0 0 0 0 0 0 0 0 0 0 0 -0 0 0 0 0 -0 -0 -0 -0 -0 -0 -0 -0 -0 0 0 0 0 0 0 0
-0 -0 0 0 0 0 0 0 -0 0 0 0 0 0 0 0 -0 0 0 0 0 -0 -0 0 -0 -0 0 0 -0 -0 -0 -0 -0 0 0 0 0 0 0 0 0 0 0
-0 -0 -0 0 0 0 0 0 0 0 -0 -0 0 -0 -0 -0 -0 0 -0 -0 -0 0 -0 -0 0 -0 -0 -0 0 -0 -0 -0 -0 0 -0 -0 -0 -0 -0 0 0 0 0
-0 -0 -0 0 0 0 0 -0 -0 -0 -0 0 0 0 -0 -0 -0 -0 -0 -0 0 -0 -0 -0 -0 -0 -0 -0 -0 0 -0 -0 -0 -0 -0 -0 -0 0 0 0 0 0 0
-0 0 0 0 0 0 0 0 -0 -0 -0 -0 -0 -0 -0 -0 -0 -0 -0 -0 -0 -0 0 0 0 -0 -0 -0 -0 -0 -0 -0 -0 -0 0 0 0 0 0 0 0 0 0
0 0 0 0 0 0 0 0 0 0 -0 -0 -0 -0 -0 -0 -0 -0 -0 -0 -0 -0 -0 0 0 0 -0 -0 -0 -0 -0 0 0 0 0 0 0 0 0 0 0 0 0
0 0 0 0 0 0 0 0 0 0 0 0 0 -0 -0 -0 -0 -0 -0 -0 -0 -0 -0 -0 -0 0 -0 0 0 0 0 0 0 0 0 0 0 0 0 0 0 0 0
0 0 0 0 0 0 0 0 0 0 0 0 0 0 -0 0 0 0 0 0 0 -0 -0 0 -0 -0 -0 0 0 0 0 0 0 0 0 0 0 0 0 0 0 0 0
0 0 0 0 0 0 0 0 0 0 0 0 0 0 0 0 0 0 0 0 0 0 0 0 0 0 0 0 0 0 0 0 0 0 0 0 0 0 0 0 0 0 0
0 0 0 0 0 0 0 0 0 0 0 0 0 0 0 0 0 0 0 0 0 0 0 0 0 0 0 0 0 0 0 0 0 0 0 0 0 0 0 0 0 0 0
0 0 0 0 0 0 0 0 0 0 0 0 0 0 0 0 0 0 0 0 0 0 0 0 0 0 0 0 0 0 0 0 0 0 0 0 0 0 0 0 0 0 0
1 1 0 1 0 0 0 0 0 0 0 0 0 0 0 0 0 0 0 0 0 0 0 0 0 0 0 0 0 0 0 0 0 0 0 0 0 0 0 0 0 0 0
Wind_Speed_500mb
25 18 15 8 8 8 12 6 8 22 10 3 7 14 14 13 11 9 10 11 10 9 9 5 1 5 16 21 30 33 35 40 47 41 42 32 36 53 79 79 86 83 66
25 19 15 8 12 4 2 2 10 21 19 8 9 11 7 5 9 7 9 10 10 7 8 8 16 16 16 18 13 19 29 39 46 52 45 47 46 61 80 85 78 63 62
25 21 14 12 8 5 8 7 16 25 21 13 16 6 8 3 8 9 8 11 9 7 11 14 11 23 21 14 4 5 22 45 43 55 59 66 84 91 98 90 73 62 55
26 21 15 10 9 9 9 10 16 30 23 18 15 16 12 8 7 8 10 8 6 9 8 13 17 13 6 5 6 12 20 41 57 64 85 88 94 91 93 80 69 63 59
26 25 15 8 15 12 13 15 16 27 23 17 19 17 18 20 19 13 8 8 14 10 8 8 14 14 6 13 14 23 26 53 70 89 89 99 96 92 77 74 66 60 53
27 23 15 19 19 14 14 14 16 18 27 27 23 18 19 10 5 12 18 18 15 12 8 12 18 15 17 17 17 22 47 81 94 95 95 96 89 80 73 62 57 54 46
29 26 19 18 16 18 16 12 18 15 13 20 20 23 15 10 10 14 21 15 12 16 15 17 18 20 21 27 27 46 64 75 76 88 96 92 85 74 61 54 54 51 44
31 29 21 22 16 20 19 13 17 17 16 18 19 20 16 20 18 25 27 17 15 15 14 16 27 23 29 38 39 55 67 71 80 83 78 80 62 60 53 53 48 39 40
33 30 28 27 12 16 16 14 15 15 18 18 24 20 25 23 23 26 25 16 19 20 17 18 23 28 25 33 43 59 67 63 61 62 60 60 50 47 53 57 51 45 50
35 31 30 20 18 19 14 15 18 14 13 17 26 26 21 21 22 23 24 15 21 21 27 24 25 30 28 30 39 51 63 58 54 68 59 52 49 46 54 41 37 36 35
35 34 30 28 27 25 11 14 21 18 14 13 19 35 30 26 22 19 24 20 18 27 32 30 38 35 32 33 43 45 54 57 61 73 60 58 52 48 49 37 33 17 25
38 36 35 30 25 20 21 23 21 16 10 12 22 37 38 32 23 22 22 21 18 34 35 36 40 44 40 34 41 41 55 56 67 68 54 53 48 44 39 34 40 37 32
41 41 39 34 32 22 26 25 19 17 15 20 25 30 34 31 26 28 31 31 28 36 37 35 38 38 30 39 47 47 59 62 64 59 52 49 41 36 28 41 42 40 33
47 47 41 41 33 29 26 24 21 22 17 18 23 25 25 29 31 39 45 44 36 43 34 32 37 36 37 49 56 53 46 45 52 46 44 41 42 43 44 45 40 41 37
50 49 45 43 35 35 33 24 23 24 23 21 22 27 34 35 36 45 51 47 41 41 40 36 39 37 42 50 51 42 41 34 36 35 34 38 45 44 46 41 39 38 41
55 53 49 47 44 39 39 36 23 27 23 29 17 15 29 24 31 47 50 38 34 35 36 37 37 35 42 51 56 49 38 44 41 44 47 50 48 42 39 43 41 42 43
61 54 50 48 48 44 42 43 38 37 34 22 26 24 20 26 21 42 44 35 30 27 33 30 26 28 35 41 49 46 40 47 54 40 45 48 47 44 44 42 36 38 40
62 57 54 52 47 48 47 43 42 45 44 42 39 33 29 31 31 27 44 46 41 37 38 34 39 38 34 34 33 36 41 39 42 46 43 40 39 41 43 50 51 47 50
65 61 57 53 48 46 47 46 44 41 43 47 51 46 40 35 35 31 44 49 52 49 49 44 39 37 39 43 46 47 48 49 52 49 52 49 51 51 54 57 59 57 48
66 60 61 51 51 48 51 50 48 49 44 49 54 61 60 54 51 52 52 55 53 50 54 51 47 32 44 42 49 50 52 53 54 56 57 57 57 59 60 59 56 57 55
67 62 60 53 54 54 54 54 52 50 53 54 56 52 61 68 65 61 60 62 63 53 48 47 55 53 47 48 52 55 58 59 59 61 63 65 62 65 62 61 58 54 54
65 60 68 65 52 56 56 54 55 54 54 52 55 62 51 41 66 70 69 67 67 67 60 55 54 51 54 59 57 58 61 61 63 61 63 61 63 63 62 62 60 57 51
63 64 65 69 65 54 59 58 57 57 56 55 54 57 61 60 54 52 57 63 64 67 73 72 70 66 62 62 64 64 68 68 68 63 63 66 67 64 60 60 60 57 59
68 62 65 71 64 62 61 67 63 61 60 58 58 59 61 62 63 61 56 52 58 58 54 54 58 76 76 68 66 61 67 69 69 67 65 65 65 64 64 63 60 60 63
62 68 60 70 77 67 64 65 71 64 66 65 62 63 61 61 63 65 66 61 58 66 70 69 66 60 55 71 79 69 69 66 65 65 65 65 63 64 65 65 65 63 66
41 49 66 55 68 74 75 66 71 74 70 71 72 67 69 66 66 67 65 61 60 69 69 72 76 74 69 65 60 65 76 75 74 70 67 68 68 63 65 66 62 62 73
Wind_Direction_500mb
171 165 178 178 162 240 311 144 152 140 159 139 104 137 167 184 222 217 184 174 153 135 134 176 227 181 146 138 154 172 174 171 166 158 160 152 153 170 165 165 149 148 144
168 164 173 180 198 251 143 137 137 139 143 130 118 122 143 180 167 158 140 149 150 148 166 163 172 177 156 145 149 173 182 179 176 157 159 161 163 171 153 144 149 146 146
169 171 173 189 199 149 150 128 138 148 142 180 137 148 126 139 135 128 143 176 185 179 155 131 140 144 143 115 64 108 160 183 176 164 160 167 159 150 151 147 148 146 150
168 172 174 185 140 133 143 140 147 152 143 170 135 159 138 134 129 165 197 213 179 154 90 98 118 151 168 238 273 139 147 166 170 158 158 151 154 150 150 146 150 154 152
164 171 164 174 148 135 123 137 138 152 145 166 159 179 181 188 190 193 182 127 114 130 173 147 129 131 132 154 166 154 157 155 155 146 141 144 153 154 152 158 154 154 156
162 166 162 142 169 142 143 161 149 159 170 178 188 195 122 212 176 157 119 113 131 148 151 128 140 135 131 128 146 148 160 153 142 137 141 147 150 157 160 158 157 157 147
160 158 154 160 174 154 157 155 156 157 160 170 159 135 187 193 177 152 129 136 152 155 139 128 135 130 135 134 144 162 156 155 159 155 155 158 156 158 156 154 152 153 155
161 161 160 152 152 159 170 183 166 167 163 154 141 154 157 141 133 123 115 129 118 118 145 141 132 128 132 134 144 160 158 160 160 162 157 155 152 150 151 146 142 144 144
164 164 170 152 134 150 166 165 146 142 172 164 153 160 148 142 131 119 103 120 118 127 129 145 145 146 139 145 151 161 162 162 165 167 156 149 147 143 148 152 156 163 163
167 165 161 159 135 145 144 147 153 161 170 177 174 173 159 155 143 132 126 129 140 132 115 118 135 138 139 142 153 159 165 168 159 149 147 149 146 153 159 160 162 172 178
167 166 162 156 147 164 152 137 141 129 128 153 191 183 176 167 155 144 137 130 142 129 122 111 127 137 128 142 152 164 162 160 158 157 153 156 157 159 166 160 155 182 187
167 166 165 165 160 165 140 134 131 114 131 121 137 159 184 176 168 157 141 141 146 140 125 121 124 128 126 128 150 145 163 157 161 165 165 166 169 175 175 171 184 196 208
171 168 171 159 177 162 154 150 142 146 134 125 130 149 172 183 185 164 148 147 140 146 141 125 124 121 118 129 138 153 160 159 161 166 175 179 182 181 178 191 200 211 218
172 172 173 161 181 160 163 152 145 165 173 133 133 148 151 166 164 162 156 149 136 154 142 137 133 129 131 132 132 137 151 166 174 179 182 189 194 194 201 207 212 222 228
174 177 177 172 182 165 163 180 177 170 193 158 149 154 154 158 152 158 157 152 149 154 153 151 144 143 149 153 155 151 155 173 173 174 181 185 198 199 210 218 224 228 232
177 179 181 181 180 175 179 179 173 181 182 173 166 145 157 161 150 158 159 153 153 157 162 159 158 158 162 165 166 168 173 187 192 198 200 204 213 214 222 225 226 228 231
182 184 186 186 185 184 187 191 188 182 191 178 165 175 169 178 168 162 164 163 173 175 167 162 172 178 183 184 186 187 193 198 202 205 212 218 224 225 220 226 226 225 237
191 191 191 188 195 190 190 193 200 200 196 193 191 198 191 190 191 192 186 184 188 193 181 196 199 199 203 207 202 200 203 216 207 203 218 222 228 224 218 219 234 234 230
197 194 192 196 197 192 196 196 198 204 203 202 202 203 203 199 203 202 202 202 203 203 194 201 215 215 213 212 214 214 220 216 224 226 217 222 229 229 224 230 233 243 239
202 196 197 201 196 198 198 198 202 203 204 200 212 211 207 207 207 208 207 207 210 216 216 212 204 221 223 224 221 222 225 226 226 230 236 235 231 237 241 233 235 238 235
196 201 205 195 201 202 200 203 205 206 205 205 212 227 222 218 216 217 218 216 214 211 222 226 221 213 223 229 230 229 230 232 234 233 238 243 243 238 237 238 237 240 242
195 202 206 206 204 206 206 209 208 209 210 209 209 220 232 226 228 228 229 229 228 223 213 224 233 233 228 227 228 233 233 235 235 237 236 236 240 239 239 241 241 239 245
199 201 209 214 207 212 212 210 212 213 214 215 213 218 227 227 228 231 238 241 238 237 233 225 222 227 234 239 241 239 236 236 236 237 239 240 238 239 242 243 243 243 240
200 208 210 213 215 211 216 213 212 215 216 217 217 220 227 229 230 235 241 245 240 244 244 242 239 236 229 229 235 242 245 244 240 239 241 243 243 239 239 239 242 243 239
210 210 216 216 212 215 215 219 215 215 218 218 219 218 227 233 236 234 235 239 237 234 236 244 253 256 249 240 233 238 241 245 247 243 240 241 245 244 241 238 240 240 243
228 219 220 228 220 214 215 218 222 221 218 221 218 220 220 229 237 238 240 239 234 230 235 239 241 247 254 259 255 245 239 242 245 245 246 246 242 242 243 242 239 242 241
Wind_Speed_850mb
25 18 15 8 8 8 12 6 8 22 10 3 7 14 14 13 11 9 10 11 10 9 9 5 1 5 16 21 30 33 35 40 47 41 42 32 36 53 79 79 86 83 66
25 19 15 8 12 4 2 2 10 21 19 8 9 11 7 5 9 7 9 10 10 7 8 8 16 16 16 18 13 19 29 39 46 52 45 47 46 61 80 85 78 63 62
25 21 14 12 8 5 8 7 16 25 21 13 16 6 8 3 8 9 8 11 9 7 11 14 11 23 21 14 4 5 22 45 43 55 59 66 84 91 98 90 73 62 55
26 21 15 10 9 9 9 10 16 30 23 18 15 16 12 8 7 8 10 8 6 9 8 13 17 13 6 5 6 12 20 41 57 64 85 88 94 91 93 80 69 63 59
26 25 15 8 15 12 13 15 16 27 23 17 19 17 18 20 19 13 8 8 14 10 8 8 14 14 6 13 14 23 26 53 70 89 89 99 96 92 77 74 66 60 53
27 23 15 19 19 14 14 14 16 18 27 27 23 18 19 10 5 12 18 18 15 12 8 12 18 15 17 17 17 22 47 81 94 95 95 96 89 80 73 62 57 54 46
29 26 19 18 16 18 16 12 18 15 13 20 20 23 15 10 10 14 21 15 12 16 15 17 18 20 21 27 27 46 64 75 76 88 96 92 85 74 61 54 54 51 44
31 29 21 22 16 20 19 13 17 17 16 18 19 20 16 20 18 25 27 17 15 15 14 16 27 23 29 38 39 55 67 71 80 83 78 80 62 60 53 53 48 39 40
33 30 28 27 12 16 16 14 15 15 18 18 24 20 25 23 23 26 25 16 19 20 17 18 23 28 25 33 43 59 67 63 61 62 60 60 50 47 53 57 51 45 50
35 31 30 20 18 19 14 15 18 14 13 17 26 26 21 21 22 23 24 15 21 21 27 24 25 30 28 30 39 51 63 58 54 68 59 52 49 46 54 41 37 36 35
35 34 30 28 27 25 11 14 21 18 14 13 19 35 30 26 22 19 24 20 18 27 32 30 38 35 32 33 43 45 54 57 61 73 60 58 52 48 49 37 33 17 25
38 36 35 30 25 20 21 23 21 16 10 12 22 37 38 32 23 22 22 21 18 34 35 36 40 44 40 34 41 41 55 56 67 68 54 53 48 44 39 34 40 37 32
41 41 39 34 32 22 26 25 19 17 15 20 25 30 34 31 26 28 31 31 28 36 37 35 38 38 30 39 47 47 59 62 64 59 52 49 41 36 28 41 42 40 33
47 47 41 41 33 29 26 24 21 22 17 18 23 25 25 29 31 39 45 44 36 43 34 32 37 36 37 49 56 53 46 45 52 46 44 41 42 43 44 45 40 41 37
50 49 45 43 35 35 33 24 23 24 23 21 22 27 34 35 36 45 51 47 41 41 40 36 39 37 42 50 51 42 41 34 36 35 34 38 45 44 46 41 39 38 41
55 53 49 47 44 39 39 36 23 27 23 29 17 15 29 24 31 47 50 38 34 35 36 37 37 35 42 51 56 49 38 44 41 44 47 50 48 42 39 43 41 42 43
61 54 50 48 48 44 42 43 38 37 34 22 26 24 20 26 21 42 44 35 30 27 33 30 26 28 35 41 49 46 40 47 54 40 45 48 47 44 44 42 36 38 40
62 57 54 52 47 48 47 43 42 45 44 42 39 33 29 31 31 27 44 46 41 37 38 34 39 38 34 34 33 36 41 39 42 46 43 40 39 41 43 50 51 47 50
65 61 57 53 48 46 47 46 44 41 43 47 51 46 40 35 35 31 44 49 52 49 49 44 39 37 39 43 46 47 48 49 52 49 52 49 51 51 54 57 59 57 48
66 60 61 51 51 48 51 50 48 49 44 49 54 61 60 54 51 52 52 55 53 50 54 51 47 32 44 42 49 50 52 53 54 56 57 57 57 59 60 59 56 57 55
67 62 60 53 54 54 54 54 52 50 53 54 56 52 61 68 65 61 60 62 63 53 48 47 55 53 47 48 52 55 58 59 59 61 63 65 62 65 62 61 58 54 54
65 60 68 65 52 56 56 54 55 54 54 52 55 62 51 41 66 70 69 67 67 67 60 55 54 51 54 59 57 58 61 61 63 61 63 61 63 63 62 62 60 57 51
63 64 65 69 65 54 59 58 57 57 56 55 54 57 61 60 54 52 57 63 64 67 73 72 70 66 62 62 64 64 68 68 68 63 63 66 67 64 60 60 60 57 59
68 62 65 71 64 62 61 67 63 61 60 58 58 59 61 62 63 61 56 52 58 58 54 54 58 76 76 68 66 61 67 69 69 67 65 65 65 64 64 63 60 60 63
62 68 60 70 77 67 64 65 71 64 66 65 62 63 61 61 63 65 66 61 58 66 70 69 66 60 55 71 79 69 69 66 65 65 65 65 63 64 65 65 65 63 66
41 49 66 55 68 74 75 66 71 74 70 71 72 67 69 66 66 67 65 61 60 69 69 72 76 74 69 65 60 65 76 75 74 70 67 68 68 63 65 66 62 62 73
Wind_Direction_850mb
171 165 178 178 162 240 311 144 152 140 159 139 104 137 167 184 222 217 184 174 153 135 134 176 227 181 146 138 154 172 174 171 166 158 160 152 153 170 165 165 149 148 144
168 164 173 180 198 251 143 137 137 139 143 130 118 122 143 180 167 158 140 149 150 148 166 163 172 177 156 145 149 173 182 179 176 157 159 161 163 171 153 144 149 146 146
169 171 173 189 199 149 150 128 138 148 142 180 137 148 126 139 135 128 143 176 185 179 155 131 140 144 143 115 64 108 160 183 176 164 160 167 159 150 151 147 148 146 150
168 172 174 185 140 133 143 140 147 152 143 170 135 159 138 134 129 165 197 213 179 154 90 98 118 151 168 238 273 139 147 166 170 158 158 151 154 150 150 146 150 154 152
164 171 164 174 148 135 123 137 138 152 145 166 159 179 181 188 190 193 182 127 114 130 173 147 129 131 132 154 166 154 157 155 155 146 141 144 153 154 152 158 154 154 156
162 166 162 142 169 142 143 161 149 159 170 178 188 195 122 212 176 157 119 113 131 148 151 128 140 135 131 128 146 148 160 153 142 137 141 147 150 157 160 158 157 157 147
160 158 154 160 174 154 157 155 156 157 160 170 159 135 187 193 177 152 129 136 152 155 139 128 135 130 135 134 144 162 156 155 159 155 155 158 156 158 156 154 152 153 155
161 161 160 152 152 159 170 183 166 167 163 154 141 154 157 141 133 123 115 129 118 118 145 141 132 128 132 134 144 160 158 160 160 162 157 155 152 150 151 146 142 144 144
164 164 170 152 134 150 166 165 146 142 172 164 153 160 148 142 131 119 103 120 118 127 129 145 145 146 139 145 151 161 162 162 165 167 156 149 147 143 148 152 156 163 163
167 165 161 159 135 145 144 147 153 161 170 177 174 173 159 155 143 132 126 129 140 132 115 118 135 138 139 142 153 159 165 168 159 149 147 149 146 153 159 160 162 172 178
167 166 162 156 147 164 152 137 141 129 128 153 191 183 176 167 155 144 137 130 142 129 122 111 127 137 128 142 152 164 162 160 158 157 153 156 157 159 166 160 155 182 187
167 166 165 165 160 165 140 134 131 114 131 121 137 159 184 176 168 157 141 141 146 140 125 121 124 128 126 128 150 145 163 157 161 165 165 166 169 175 175 171 184 196 208
171 168 171 159 177 162 154 150 142 146 134 125 130 149 172 183 185 164 148 147 140 146 141 125 124 121 118 129 138 153 160 159 161 166 175 179 182 181 178 191 200 211 218
172 172 173 161 181 160 163 152 145 165 173 133 133 148 151 166 164 162 156 149 136 154 142 137 133 129 131 132 132 137 151 166 174 179 182 189 194 194 201 207 212 222 228
174 177 177 172 182 165 163 180 177 170 193 158 149 154 154 158 152 158 157 152 149 154 153 151 144 143 149 153 155 151 155 173 173 174 181 185 198 199 210 218 224 228 232
177 179 181 181 180 175 179 179 173 181 182 173 166 145 157 161 150 158 159 153 153 157 162 159 158 158 162 165 166 168 173 187 192 198 200 204 213 214 222 225 226 228 231
182 184 186 186 185 184 187 191 188 182 191 178 165 175 169 178 168 162 164 163 173 175 167 162 172 178 183 184 186 187 193 198 202 205 212 218 224 225 220 226 226 225 237
191 191 191 188 195 190 190 193 200 200 196 193 191 198 191 190 191 192 186 184 188 193 181 196 199 199 203 207 202 200 203 216 207 203 218 222 228 224 218 219 234 234 230
197 194 192 196 197 192 196 196 198 204 203 202 202 203 203 199 203 202 202 202 203 203 194 201 215 215 213 212 214 214 220 216 224 226 217 222 229 229 224 230 233 243 239
202 196 197 201 196 198 198 198 202 203 204 200 212 211 207 207 207 208 207 207 210 216 216 212 204 221 223 224 221 222 225 226 226 230 236 235 231 237 241 233 235 238 235
196 201 205 195 201 202 200 203 205 206 205 205 212 227 222 218 216 217 218 216 214 211 222 226 221 213 223 229 230 229 230 232 234 233 238 243 243 238 237 238 237 240 242
195 202 206 206 204 206 206 209 208 209 210 209 209 220 232 226 228 228 229 229 228 223 213 224 233 233 228 227 228 233 233 235 235 237 236 236 240 239 239 241 241 239 245
199 201 209 214 207 212 212 210 212 213 214 215 213 218 227 227 228 231 238 241 238 237 233 225 222 227 234 239 241 239 236 236 236 237 239 240 238 239 242 243 243 243 240
200 208 210 213 215 211 216 213 212 215 216 217 217 220 227 229 230 235 241 245 240 244 244 242 239 236 229 229 235 242 245 244 240 239 241 243 243 239 239 239 242 243 239
210 210 216 216 212 215 215 219 215 215 218 218 219 218 227 233 236 234 235 239 237 234 236 244 253 256 249 240 233 238 241 245 247 243 240 241 245 244 241 238 240 240 243
228 219 220 228 220 214 215 218 222 221 218 221 218 220 220 229 237 238 240 239 234 230 235 239 241 247 254 259 255 245 239 242 245 245 246 246 242 242 243 242 239 242 241